Weather History for Crossville, TN

Change the Weather History Date:

Wednesday, April 16, 2014

  Actual Average Record
Temperature  
Mean Temperature 42 °F 56 °F  
Max Temperature 57 °F 67 °F 85 °F (1955)
Min Temperature 27 °F 45 °F 24 °F (1962)
Degree Days  
Heating Degree Days 23    
Month to date heating degree days 142  
Since 1 July heating degree days 4319  
Cooling Degree Days 0    
Month to date cooling degree days 7  
Year to date cooling degree days 7  
Moisture  
Dew Point 22 °F    
Average Humidity 53    
Maximum Humidity 81    
Minimum Humidity 24    
Precipitation  
Precipitation 0.00 in 0.16 in 1.21 in (1998)
Month to date precipitation 2.78 2.57  
Year to date precipitation 11.43 16.77  
Sea Level Pressure  
Sea Level Pressure 30.26 in    
Wind  
Wind Speed 7 mph (East)    
Max Wind Speed 13 mph    
Max Gust Speed 19 mph    
Visibility 10 miles    
Events      
T = Trace of Precipitation, MM = Missing Value Source: NWS Daily Summary

Daily Weather History Graph

Daily Weather History Graph

Search for Another Location

Airport:

Trip Planner

Search our weather history database for the weather conditions in past years. The results will help you decide how hot, cold, wet, or windy it might be!

Date:

Astronomy

Apr. 16, 2014 Rise Set
Actual Time 6:05 AM CDT 7:14 PM CDT
Civil Twilight 5:39 AM CDT 7:41 PM CDT
Nautical Twilight 5:08 AM CDT 8:12 PM CDT
Astronomical Twilight 4:35 AM CDT 8:45 PM CDT
Moon 8:54 PM CDT (4/16) 6:54 AM CDT (4/16)
Length of Visible Light 14h 01m
Length of Day
13h 08m
Full, 98% of the Moon is Illuminated
Apr 16
Full
Apr 22
Last Quarter
Apr 29
New
May 6
First Quarter
May 14
Full

Hourly Weather History & Observations

Time (CDT) Temp. Windchill Dew Point Humidity Pressure Visibility Wind Dir Wind Speed Gust Speed Precip Events Conditions
12:53 AM 32.0 °F 26.4 °F 21.9 °F 66% 30.24 in 10.0 mi NNE 5.8 mph - N/A   Clear
1:53 AM 32.0 °F 26.4 °F 21.0 °F 64% 30.25 in 10.0 mi NNE 5.8 mph - N/A   Clear
2:53 AM 30.0 °F 23.2 °F 21.0 °F 69% 30.26 in 10.0 mi NNE 6.9 mph - N/A   Clear
3:53 AM 28.9 °F 21.9 °F 21.0 °F 72% 30.27 in 10.0 mi NE 6.9 mph - N/A   Clear
4:53 AM 28.0 °F 20.0 °F 21.0 °F 75% 30.28 in 10.0 mi NE 8.1 mph - N/A   Clear
5:53 AM 27.0 °F 18.7 °F 21.0 °F 78% 30.28 in 10.0 mi NE 8.1 mph - N/A   Clear
6:53 AM 28.0 °F 20.8 °F 21.0 °F 75% 30.30 in 10.0 mi ENE 6.9 mph - N/A   Clear
7:53 AM 32.0 °F 23.6 °F 21.9 °F 66% 30.31 in 10.0 mi ENE 10.4 mph 16.1 mph N/A   Clear
8:53 AM 36.0 °F 29.0 °F 19.9 °F 52% 30.30 in 10.0 mi ESE 9.2 mph - N/A   Clear
9:53 AM 39.9 °F 33.9 °F 19.0 °F 43% 30.32 in 10.0 mi East 9.2 mph 18.4 mph N/A   Clear
10:53 AM 44.1 °F 37.4 °F 18.0 °F 35% 30.32 in 10.0 mi ESE 13.8 mph 19.6 mph N/A   Clear
11:53 AM 46.9 °F - 16.0 °F 29% 30.31 in 10.0 mi East 9.2 mph - N/A   Clear
1:53 PM 54.0 °F - 19.9 °F 26% 30.25 in 10.0 mi East 8.1 mph - N/A   Clear
2:53 PM 55.9 °F - 19.0 °F 24% 30.23 in 10.0 mi ESE 8.1 mph - N/A   Clear
3:53 PM 55.9 °F - 19.9 °F 25% 30.22 in 10.0 mi SSE 6.9 mph 16.1 mph N/A   Clear
4:53 PM 57.0 °F - 21.0 °F 25% 30.21 in 10.0 mi SSE 5.8 mph - N/A   Clear
5:53 PM 55.9 °F - 23.0 °F 28% 30.21 in 10.0 mi SSE 6.9 mph - N/A   Clear
6:53 PM 54.0 °F - 26.1 °F 34% 30.21 in 10.0 mi SSE 5.8 mph - N/A   Clear
7:53 PM 50.0 °F - 28.0 °F 43% 30.23 in 10.0 mi SE 3.5 mph - N/A   Clear
8:53 PM 48.0 °F - 28.0 °F 46% 30.25 in 10.0 mi Calm Calm - N/A   Clear
9:53 PM 46.0 °F - 28.0 °F 50% 30.25 in 10.0 mi Calm Calm - N/A   Clear
10:53 PM 46.0 °F 43.1 °F 28.0 °F 50% 30.26 in 10.0 mi SSE 5.8 mph - N/A   Clear
11:53 PM 46.9 °F - 26.1 °F 44% 30.27 in 10.0 mi Variable 4.6 mph - N/A   Clear